Weather History for KSPG - October, 2014

Change the Weather History Date:

Wednesday, October 22, 2014

  Actual Average Record
Temperature  
Mean Temperature 78 °F -  
Max Temperature 82 °F 82 °F 90 °F (2006)
Min Temperature 73 °F 68 °F 55 °F (1976)
Cooling Degree Days 12    
Growing Degree Days 28 (Base 50)    
Moisture  
Dew Point 65 °F    
Average Humidity 68    
Maximum Humidity 87    
Minimum Humidity 49    
Precipitation  
Precipitation 0.00 in - - ()
Sea Level Pressure  
Sea Level Pressure 29.94 in    
Wind  
Wind Speed 7 mph (NE)    
Max Wind Speed 18 mph    
Max Gust Speed -    
Visibility 10 miles    
Events      
Averages and records for this station are not official NWS values.
T = Trace of Precipitation, MM = Missing Value Source: NWS Daily Summary

Daily Weather History Graph

Daily Weather History Graph

Search for Another Location

Airport or City:

Trip Planner

Search our weather history database for the weather conditions in past years. The results will help you decide how hot, cold, wet, or windy it might be!

Date:

Astronomy

Oct. 22, 2014 Rise Set
Actual Time 7:34 AM EDT 6:54 PM EDT
Civil Twilight 7:11 AM EDT 7:18 PM EDT
Nautical Twilight 6:43 AM EDT 7:45 PM EDT
Astronomical Twilight 6:16 AM EDT 8:13 PM EDT
Moon 6:21 AM EDT (10/22) 6:16 PM EDT (10/22)
Length of Visible Light 12h 07m
Length of Day
11h 19m
Waning Crescent, 2% of the Moon is Illuminated
Oct 22
Waning Crescent
Oct 23
New
Oct 30
First Quarter
Nov 6
Full
Nov 14
Last Quarter

Hourly Weather History & Observations

Time (EDT) Temp. Heat Index Dew Point Humidity Pressure Visibility Wind Dir Wind Speed Gust Speed Precip Events Conditions
12:53 AM 75.0 °F - 66.9 °F 76% 29.94 in 10.0 mi North 4.6 mph - N/A   Clear
1:53 AM 75.0 °F - 68.0 °F 79% 29.93 in 10.0 mi North 5.8 mph - N/A   Clear
2:53 AM 73.9 °F - 68.0 °F 82% 29.91 in 10.0 mi NNE 6.9 mph - N/A   Clear
3:53 AM 73.9 °F - 70.0 °F 87% 29.91 in 10.0 mi NNE 8.1 mph - N/A   Clear
4:53 AM 73.9 °F - 68.0 °F 82% 29.93 in 10.0 mi NNE 6.9 mph - N/A   Clear
5:53 AM 73.0 °F - 66.9 °F 81% 29.93 in 10.0 mi NNE 8.1 mph - N/A   Clear
6:53 AM 73.0 °F - 66.9 °F 81% 29.94 in 10.0 mi NNE 8.1 mph - N/A   Clear
7:53 AM 73.0 °F - 66.0 °F 79% 29.95 in 10.0 mi NE 11.5 mph - N/A   Clear
8:53 AM 73.9 °F - 64.9 °F 73% 29.97 in 10.0 mi NE 10.4 mph - N/A   Clear
9:53 AM 75.9 °F - 64.0 °F 67% 29.99 in 10.0 mi ENE 13.8 mph - N/A   Clear
10:53 AM 77.0 °F - 64.0 °F 64% 29.99 in 10.0 mi ENE 9.2 mph - N/A   Clear
11:53 AM 79.0 °F - 64.9 °F 62% 29.99 in 10.0 mi ENE 9.2 mph - N/A   Clear
12:53 PM 81.0 °F 82.7 °F 64.9 °F 58% 29.98 in 10.0 mi ENE 6.9 mph - N/A   Clear
1:53 PM 82.0 °F 83.4 °F 64.0 °F 54% 29.94 in 10.0 mi East 6.9 mph - N/A   Clear
2:53 PM 82.9 °F 84.6 °F 64.9 °F 54% 29.92 in 10.0 mi ESE 5.8 mph - N/A   Clear
3:53 PM 82.9 °F 84.0 °F 63.0 °F 51% 29.91 in 10.0 mi East 3.5 mph - N/A   Clear
4:53 PM 82.0 °F 82.7 °F 61.0 °F 49% 29.91 in 10.0 mi SSE 3.5 mph - N/A   Clear
5:53 PM 82.0 °F 83.0 °F 62.1 °F 51% 29.91 in 10.0 mi Calm Calm - N/A   Clear
6:53 PM 78.1 °F - 64.9 °F 64% 29.92 in 10.0 mi North 8.1 mph - N/A   Clear
7:53 PM 77.0 °F - 64.0 °F 64% 29.93 in 10.0 mi North 8.1 mph - N/A   Clear
8:53 PM 75.9 °F - 64.0 °F 67% 29.95 in 10.0 mi North 9.2 mph - N/A   Clear
9:53 PM 75.0 °F - 64.9 °F 71% 29.95 in 10.0 mi NNE 8.1 mph - N/A   Clear
10:53 PM 77.0 °F - 64.9 °F 66% 29.97 in 10.0 mi East 18.4 mph - N/A   Clear
11:53 PM 75.0 °F - 64.9 °F 71% 29.97 in 10.0 mi East 18.4 mph - N/A   Clear